Showing default

LARETS, 27944

Orbit data source: Space-Track

LARETS, 27944 is a payload satellite owned by NII KP (CIS) in SSO that was launched on Sat, 27 Sep 2003 UTC via a KOSMOS 11K65M launch vehicle from the Plesetsk Missile And Space Complex (PKMTR). Payload-class satellites include a variety of spacecraft equipped with specific instruments for various scientific and technological missions. These include communications satellites like Starlink; space stations such as the ISS; scientific satellites like the Hubble; Earth observation satellites from companies like Planet Labs, Umbra, and HawkEye 360; GPS; miniature CubeSats for education and research; and military/defense satellites.

Loading next visibility...
Identifier
27944, 2003-042F
Orbit
SSO
Country
Flag of CISCIS
Related business
Manufacturer
NII KP
Mission
Operational Defense Calibration
Bus & Motor
Unknown
Mass
~10 kg wet, ~10 kg dry
Launch date (UTC)
2003-09-27 (22 years ago)
Launch vehicle
KOSMOS 11K65M
Launch site
Plesetsk Missile And Space Complex (PKMTR)
Object type
Payload
Rocket body
Debris
Shape & HBR
Sphere, 0.1 m
Radar Cross Section
0.031 m², Medium (>0.1 m² and < 1m²)

Expand to show TLE details & history
Last TLE update: 10 hours ago

TLE from 10 hours ago
0 LARETS
1 27944U 03042F   25351.91024601  .00000058  00000-0  20681-4 0  9998
2 27944  98.3901 145.5571 0011191 239.0211 120.9892 14.63822015186847
Epoch: 2025-12-17T21:50Z
TLE epoch observation values (Epoch: 2025-12-17T21:50:45.255Z)
Latitude
0.00003°
Longitude
91.0952°
Altitude
687.919 km
Speed
7.51 km/s
True Right ascension
09h 42m 13s
True Declination
0° 00' 00"
Sunlit
Object was in full shadow at epoch
Visualization orbit readout
Latitude
Unknown
Longitude
Unknown
Altitude
Unknown
Speed
Unknown
Apparent Right ascension
Unknown
Apparent Declination
Unknown
Sunlit
N/A
Visualization observer readout
Local Sidereal Time
07:04:26
Azimuth
Unknown
Elevation
Unknown
Doppler factor
Unknown
Orbital elements
Apogee altitude
685.841 km
Perigee altitude
670.048 km
Semi-major axis
7,056.082 km
Eccentricity
0.00112
Inclination
98.3901°
RAAN
145.5571°
Arg. of periapsis
239.0211°
True anomaly
121.09906°
Mean anomaly
120.9892°
Eccentric anomaly
121.04414°
Mean motion
3.66183 °/min
Orbital period
98.31 mins
BSTAR
0.000020681
Loading maneuver chart data...
Computing Atmospheric mass density...
Loading historical data...
Loading historical data...
Loading historical data...
Loading historical data...
Loading historical data...
Loading historical data...
Loading historical data...

Documentation

Showing up to 5 results
|